Theta_e
291 291 290 290 289 289 289 288 287 287 286 285 284 284 284 283 283 283 283 283 282 282 281 281 280 279 278 277 277 276 276 276 276 275 275 275 275 275 275 275 275 275 274 274 273 273 273 272 272 272 272 272 271 271 271 271 271 271 271 271 271 271 271 270 270 270 271 271 271 270 269 269 269 270 270 270 270 270 270 270 270 270 270 270 270
291 291 290 289 289 288 288 288 287 286 286 285 284 284 283 282 282 282 282 282 281 281 281 280 280 279 278 277 276 276 276 275 275 275 275 275 274 274 274 274 274 274 274 273 273 272 272 272 271 271 271 271 271 270 270 270 270 270 270 270 270 270 270 270 269 269 270 270 270 270 269 269 269 269 269 269 270 270 270 270 270 270 270 270 270
290 290 290 290 289 288 287 287 286 286 285 285 284 283 282 281 281 281 281 281 280 280 280 280 279 279 278 277 276 275 275 275 275 274 274 274 274 274 274 273 273 273 273 273 272 272 271 271 271 270 270 270 270 270 270 270 269 269 269 269 269 269 269 269 269 269 269 269 269 269 268 268 268 268 268 269 269 269 270 270 270 270 270 270 270
289 289 289 289 288 287 287 286 286 285 285 284 284 283 282 281 280 280 280 280 279 279 279 279 279 279 278 277 276 275 275 274 274 274 274 273 273 273 273 273 273 272 272 272 272 272 271 270 270 270 270 269 269 269 269 269 269 268 269 268 268 268 268 268 268 268 268 268 268 268 268 268 268 267 268 269 269 270 270 270 270 270 270 269 269
287 287 287 288 287 286 286 285 285 284 284 283 283 282 281 280 279 279 279 279 279 278 278 278 278 278 277 277 276 275 274 274 274 273 273 273 273 272 273 273 272 272 272 271 271 271 271 270 269 269 269 269 268 268 268 268 268 268 268 268 268 268 267 267 267 267 267 266 267 267 267 267 268 268 268 268 269 270 270 270 270 270 270 270 269
286 286 286 286 286 285 285 284 283 283 283 282 282 281 280 280 279 279 278 278 278 277 277 277 277 277 277 276 276 275 274 274 273 273 273 272 272 272 272 272 272 271 271 271 271 271 271 270 269 268 268 268 268 268 268 268 268 268 267 267 267 267 267 267 267 266 266 266 266 266 266 267 267 267 267 267 267 268 269 271 271 270 269 269 269
285 285 285 285 285 284 283 283 282 282 282 281 281 280 280 279 278 278 277 277 277 277 277 276 276 276 276 276 275 275 274 273 273 272 272 272 271 271 271 271 271 271 271 270 270 270 270 270 269 268 268 268 267 267 267 267 267 267 267 267 267 267 266 266 266 266 266 266 265 265 266 266 266 266 266 266 266 266 266 267 269 270 269 268 267
284 283 283 283 283 283 282 282 282 281 281 280 280 280 279 278 277 277 276 276 276 276 276 275 275 275 275 275 275 275 274 273 273 272 272 271 271 271 271 270 270 270 270 270 269 269 269 269 269 268 268 267 267 267 267 266 266 266 266 266 266 266 266 266 266 265 265 265 265 264 265 265 265 265 266 265 265 264 264 263 264 266 267 267 266
282 281 281 282 282 282 281 281 281 280 279 279 279 278 278 277 277 276 276 276 276 276 275 275 275 275 274 274 274 274 274 274 273 272 271 271 271 270 270 270 270 270 270 269 269 269 269 268 268 268 268 267 267 267 266 266 266 266 266 266 266 266 265 265 265 265 264 264 264 264 264 264 264 264 264 264 263 263 263 263 262 263 264 265 266
280 280 280 280 280 280 280 279 279 278 278 278 278 277 277 276 276 275 275 275 275 275 275 274 274 274 274 274 274 274 274 273 273 272 271 271 270 270 270 270 270 269 269 269 269 268 268 268 268 267 267 267 266 266 266 265 265 265 265 265 265 265 265 264 264 264 263 263 263 263 263 263 263 263 263 263 263 262 263 262 262 263 262 263 265
279 279 279 279 279 278 277 276 276 276 276 277 276 276 276 276 275 275 275 275 275 274 274 274 274 274 274 273 273 274 274 273 272 272 271 270 269 269 269 270 270 269 269 269 268 268 268 268 267 267 267 267 266 266 265 265 265 264 264 264 264 264 264 264 263 263 263 263 263 262 262 262 262 262 262 263 263 262 262 262 262 262 261 261 262
278 278 277 277 277 276 275 274 275 275 275 275 276 275 275 275 275 274 274 274 274 273 273 274 274 274 273 273 273 273 273 273 272 272 271 270 269 269 269 270 270 270 269 269 269 268 268 267 267 267 267 266 266 266 265 265 264 264 264 264 264 264 264 263 263 263 262 262 262 262 262 262 262 262 262 263 263 262 262 263 262 262 261 260 260
277 276 276 276 275 274 274 273 274 274 274 275 275 274 274 274 274 273 273 273 272 272 273 273 273 273 273 273 273 273 273 273 272 272 271 271 270 270 270 270 270 270 270 270 269 269 268 268 267 267 267 266 266 265 265 264 264 264 264 263 263 264 264 263 263 263 262 262 262 262 262 262 262 262 263 262 263 263 262 263 262 261 261 261 260
275 275 275 275 274 274 273 273 273 273 273 274 274 274 273 273 273 273 272 272 272 272 272 272 273 273 273 272 272 273 273 272 272 271 271 271 270 270 271 271 271 271 270 270 270 270 269 269 268 268 267 266 266 265 265 264 264 264 263 263 263 263 264 264 263 263 263 262 262 262 262 262 262 262 263 263 263 263 262 262 262 261 261 261 261
274 274 274 273 273 272 272 272 272 272 272 272 272 272 272 272 272 272 272 272 271 271 272 272 272 273 272 272 272 272 273 272 271 271 271 270 270 270 270 270 270 270 270 270 270 270 270 269 269 269 268 267 266 265 265 264 264 263 263 263 263 263 264 264 263 263 263 263 262 262 262 262 263 263 263 263 263 263 262 262 261 260 260 261 262
272 273 272 272 271 271 271 271 270 270 270 271 271 272 271 271 271 271 271 271 271 271 272 272 272 272 272 272 271 272 272 272 270 270 270 270 269 269 269 270 270 270 270 270 270 270 270 269 269 269 268 268 267 266 265 264 263 263 263 263 264 264 264 264 264 264 264 263 263 263 263 263 263 263 263 263 262 262 262 261 261 261 260 260 261
271 271 271 270 270 270 270 269 269 269 269 270 270 271 271 271 271 270 270 270 271 271 271 271 271 272 272 271 271 271 272 271 270 269 269 269 269 268 269 269 269 269 269 270 270 269 269 269 269 269 269 268 267 266 265 264 263 263 263 263 263 263 264 264 264 264 264 263 263 263 263 263 263 263 263 262 262 261 261 261 261 260 260 258 258
270 270 270 269 269 269 269 268 268 268 269 269 269 270 270 270 270 270 270 270 270 270 270 270 271 271 271 271 271 270 271 271 270 270 269 269 269 268 268 268 268 269 269 269 269 269 269 269 269 269 269 268 267 266 265 264 264 263 263 263 263 263 263 264 264 264 263 263 263 263 263 263 263 263 263 262 261 261 260 260 260 260 259 258 257
268 268 268 268 268 269 268 268 268 268 268 269 269 269 269 269 269 269 269 269 269 269 269 269 270 270 270 270 270 269 269 270 270 269 269 269 268 268 268 268 268 268 268 268 269 269 269 269 269 269 269 268 267 267 266 265 264 264 263 263 262 263 264 264 264 264 263 263 263 263 263 263 263 263 263 262 261 261 260 260 260 259 258 258 257
266 267 267 267 268 268 268 267 267 267 268 268 268 268 268 268 269 269 269 269 268 268 268 268 268 269 269 269 269 269 269 268 269 269 268 268 268 268 267 267 267 267 268 268 268 268 269 269 269 269 268 268 267 267 266 265 264 264 263 263 263 263 264 264 264 263 263 263 263 263 263 263 263 263 263 262 261 261 261 260 260 259 258 258 258
266 266 267 267 267 267 267 267 267 267 267 267 267 268 268 268 268 268 268 268 268 267 268 267 267 268 268 268 268 268 268 268 268 268 268 268 267 267 267 267 267 267 267 267 267 268 268 269 269 269 268 267 267 267 266 265 265 264 264 264 264 264 264 264 264 263 263 263 263 262 263 263 263 263 263 262 262 261 261 260 260 259 259 258 258
265 266 266 266 266 266 267 267 266 266 267 267 267 267 267 267 267 267 267 267 267 266 267 266 266 266 267 267 267 267 267 267 267 267 267 267 267 267 267 267 267 267 267 267 267 267 268 268 269 269 268 267 267 266 266 265 265 264 264 265 265 265 264 264 264 263 263 263 263 262 263 263 263 263 263 262 262 262 261 261 260 260 259 259 259
264 265 265 265 265 266 266 266 266 266 266 266 266 266 266 266 267 267 266 266 266 266 266 266 266 266 266 266 266 266 266 266 266 266 267 267 267 267 267 267 267 267 267 267 267 267 268 268 268 268 267 266 266 266 265 265 265 264 264 265 265 265 264 264 264 263 263 263 262 262 263 263 263 263 263 262 262 262 261 261 260 260 260 260 260
264 264 264 264 264 265 265 264 265 265 265 265 265 265 266 266 266 266 266 266 266 266 266 266 266 266 266 266 266 266 266 266 266 266 266 266 266 267 267 267 267 267 267 267 268 267 267 267 267 267 266 266 265 265 265 265 264 264 264 264 264 264 264 263 263 263 262 262 262 262 263 263 262 262 262 262 261 261 261 260 260 260 260 260 261
263 263 263 263 263 264 264 264 264 264 264 264 265 265 265 265 265 265 265 265 265 265 265 265 265 265 265 265 265 266 265 265 265 265 265 266 266 266 266 266 267 267 267 267 267 267 267 267 266 266 266 265 265 264 264 264 264 264 264 264 263 263 263 262 262 262 262 262 262 262 262 262 262 262 261 261 261 261 260 260 261 261 261 261 261
262 262 262 263 262 263 263 263 263 263 263 264 264 264 264 264 264 265 265 265 265 265 265 265 265 265 265 265 265 265 265 265 265 265 265 265 265 265 266 266 266 266 266 266 266 266 266 266 266 265 265 265 264 264 264 263 263 263 263 263 263 262 262 262 261 261 261 262 262 262 262 262 262 261 261 261 261 261 260 260 261 261 261 260 261
262 262 262 262 262 262 262 261 262 262 263 263 263 263 263 263 263 263 264 264 264 264 264 264 264 264 264 264 264 264 264 265 264 264 264 265 265 265 265 265 265 266 266 266 266 266 266 265 265 265 265 264 264 264 263 263 263 263 262 262 262 262 262 262 262 262 262 262 262 262 262 262 261 261 261 261 261 260 259 259 260 260 260 259 260
261 261 261 261 261 261 261 260 260 261 261 262 262 261 261 261 262 262 263 263 263 263 263 263 264 264 264 263 263 263 263 264 264 264 264 264 264 264 264 265 265 265 265 265 265 265 265 265 265 265 265 264 264 264 263 263 262 262 262 262 262 262 262 262 262 262 262 262 262 262 262 262 261 261 261 260 260 260 259 259 259 259 259 258 258
261 261 260 260 260 260 260 259 259 259 260 261 261 261 260 260 260 261 262 262 262 262 263 263 263 263 263 262 262 262 263 263 263 264 264 264 264 264 264 264 264 265 265 265 265 265 265 265 264 264 264 264 264 264 264 263 263 263 263 262 262 262 262 262 262 262 262 262 262 262 262 261 261 261 260 260 260 260 259 259 259 258 258 257 257
261 261 260 260 260 259 259 259 259 259 259 259 260 262 262 261 260 260 261 261 261 261 262 262 262 262 262 261 261 262 262 262 262 263 263 264 264 264 264 264 264 264 264 264 264 264 264 264 264 264 264 264 264 264 264 263 263 263 263 262 262 262 262 262 262 262 262 262 262 262 261 261 260 260 260 259 259 259 259 259 258 258 257 256 256
261 261 260 260 259 258 258 258 258 259 259 259 259 260 261 261 261 260 259 260 261 261 261 261 261 260 260 261 261 261 261 261 261 262 262 262 263 263 264 264 264 264 264 264 264 264 264 264 264 264 264 263 263 264 264 263 263 263 262 262 262 262 262 262 262 262 262 262 262 261 261 260 260 260 259 259 259 259 259 259 258 258 257 256 255
260 260 260 259 259 258 258 258 258 258 258 259 258 258 259 260 261 260 260 259 259 259 259 259 259 259 260 260 260 260 260 260 260 261 261 262 262 262 263 263 263 263 264 264 264 264 264 263 263 263 263 263 263 263 263 263 263 262 262 262 262 261 261 261 261 262 262 261 261 261 260 260 260 259 259 258 258 258 258 259 258 257 256 256 255
259 259 259 259 259 258 258 258 258 257 258 258 258 258 258 258 258 259 260 259 259 259 259 258 259 259 259 259 259 259 259 259 259 260 260 261 261 261 262 262 262 263 263 263 263 263 263 263 263 263 263 263 263 263 263 263 262 262 262 262 261 261 261 261 261 261 261 261 261 260 260 259 259 259 259 258 257 257 258 258 257 257 256 255 255
258 258 258 259 258 258 258 257 257 257 257 257 257 257 257 257 257 257 258 258 259 259 258 258 258 258 258 258 258 258 258 258 259 259 260 260 260 260 260 261 261 261 262 262 261 261 261 261 262 262 262 262 262 262 262 262 262 262 262 261 261 261 261 261 261 261 261 261 260 260 259 259 259 258 258 258 257 257 258 257 256 256 255 254 254
258 258 258 258 258 258 257 257 257 257 257 257 257 256 257 257 257 256 256 256 257 257 257 257 257 257 257 258 258 258 258 258 258 258 259 259 259 259 259 260 260 260 260 260 260 260 260 260 260 261 261 261 261 261 261 261 262 262 261 261 261 261 261 261 261 261 260 260 260 259 259 259 259 258 257 257 257 257 257 257 256 255 255 254 254
258 258 258 257 257 257 257 257 256 256 256 256 256 256 256 256 256 256 256 256 256 256 256 257 257 257 257 257 257 257 257 257 257 257 258 258 258 258 258 258 258 258 259 259 259 259 259 260 260 260 260 260 260 261 261 261 261 261 261 261 261 261 261 261 261 260 260 260 259 259 259 258 258 258 257 257 257 257 256 256 256 255 255 255 254
257 257 257 257 257 257 257 257 256 256 256 256 256 256 256 256 256 256 256 256 256 256 256 256 256 257 257 256 256 257 257 257 257 257 257 257 257 257 257 257 257 257 258 258 258 258 259 259 259 260 260 260 260 260 260 260 261 261 261 261 261 261 261 261 261 260 260 259 259 259 259 258 258 257 257 257 257 257 256 256 255 255 255 255 254
256 256 257 257 257 257 257 257 256 256 256 256 256 256 256 255 255 255 255 255 255 256 256 256 256 256 256 256 256 256 256 256 256 257 257 257 257 257 257 257 257 257 257 257 257 258 258 258 259 259 259 260 260 260 260 260 260 261 261 261 261 261 261 261 260 260 259 259 259 258 258 258 258 257 257 257 257 257 256 256 255 255 256 256 254
256 256 256 256 257 257 257 256 256 256 256 255 255 255 255 255 255 255 255 255 255 255 255 255 255 256 256 256 256 256 256 256 256 256 256 257 257 257 257 257 257 257 257 257 257 257 258 258 258 258 259 259 260 260 260 261 261 261 261 260 260 260 260 260 260 259 259 259 258 258 258 258 258 257 257 257 257 256 256 256 256 255 255 255 254
256 256 256 256 256 256 256 256 256 255 255 255 255 255 255 255 255 255 255 255 255 255 255 255 255 255 255 256 255 255 255 255 256 256 256 256 256 257 257 257 257 257 257 257 257 257 257 257 258 258 258 258 259 259 260 260 260 260 260 260 260 260 260 260 259 259 259 258 258 258 258 258 258 257 257 257 257 256 256 256 256 256 255 254 254
256 256 256 256 256 256 256 256 255 255 255 255 255 254 254 254 254 254 254 254 254 254 254 255 255 255 255 255 255 255 255 255 255 255 256 256 256 256 256 256 256 256 256 256 257 257 257 257 257 257 257 257 258 258 258 259 259 259 260 260 260 260 259 259 259 259 258 258 258 258 258 258 257 257 257 257 257 256 256 256 257 257 256 255 254
256 256 256 256 256 256 256 256 255 255 255 254 254 254 254 254 254 254 254 254 254 254 254 254 254 255 255 255 255 255 255 255 255 255 255 255 255 256 256 256 256 256 256 256 256 256 256 257 257 257 257 257 257 257 258 258 258 258 259 259 259 259 259 259 259 258 258 258 258 258 258 258 257 257 257 257 257 256 257 257 257 257 256 255 254
255 255 255 255 255 255 255 255 255 255 254 254 254 254 254 254 254 254 254 254 254 254 254 254 254 254 254 254 255 255 255 255 255 255 255 255 255 255 255 255 255 256 256 256 256 256 256 256 256 256 256 256 256 257 257 257 257 258 258 258 258 258 258 258 258 258 257 257 258 258 258 257 257 257 257 257 257 257 257 257 257 256 256 255 255
255 255 255 255 255 255 255 255 255 255 254 254 254 254 254 254 254 254 254 254 254 254 254 254 254 254 254 254 254 254 254 254 254 254 255 255 255 255 255 255 255 255 255 255 255 255 256 256 255 255 256 256 256 256 256 256 257 257 257 257 257 257 258 257 257 257 257 257 257 257 257 257 257 257 257 257 257 257 257 257 257 256 256 255 254
255 255 255 255 255 256 255 255 255 255 254 254 255 255 254 254 254 254 253 253 253 253 253 254 254 254 254 254 254 254 254 254 254 254 254 254 254 254 254 254 254 254 255 255 255 255 255 255 255 255 255 255 255 256 256 256 256 256 256 256 256 257 257 257 257 257 257 257 257 257 257 257 257 257 257 257 257 257 257 257 256 256 256 255 254
255 255 255 255 255 255 255 255 255 255 254 254 254 255 255 254 254 254 253 253 253 253 253 253 253 253 253 253 253 253 253 253 254 254 254 254 254 254 254 254 254 254 254 254 254 254 255 255 255 255 255 255 255 255 255 255 255 255 255 256 256 256 256 256 257 257 257 257 257 257 257 257 257 257 257 257 257 257 257 257 257 256 256 255 254
255 255 255 255 255 255 255 255 255 255 254 254 254 254 254 254 254 254 253 253 253 253 253 253 253 253 253 253 253 253 253 253 253 253 253 253 254 254 254 254 254 253 253 254 254 254 254 254 254 254 254 254 254 255 255 255 255 255 255 255 256 256 256 256 256 257 257 257 257 257 257 257 257 257 257 257 257 257 257 257 257 257 256 255 255
255 255 255 255 255 255 255 255 255 255 254 254 254 254 254 254 254 254 254 253 253 253 253 253 253 253 253 253 253 253 253 253 253 253 253 253 253 253 253 253 253 253 253 253 253 254 254 254 254 254 254 254 254 254 255 255 255 255 255 256 256 256 256 257 257 257 257 257 257 257 257 257 257 257 257 257 257 257 257 257 257 257 256 256 256
255 255 255 255 255 255 255 255 255 255 254 254 254 254 254 254 254 254 254 254 254 254 253 253 253 253 253 253 253 253 253 253 253 253 253 253 253 253 253 253 253 253 253 253 253 253 253 254 254 254 254 254 254 254 255 255 255 255 256 256 256 256 256 256 257 257 257 257 257 257 257 257 257 257 257 257 257 257 257 257 257 257 256 256 256
255 255 255 255 255 255 254 254 254 254 254 254 254 254 254 254 254 254 254 254 254 254 253 253 253 253 253 253 253 253 253 253 253 253 253 253 253 253 253 253 253 253 253 253 253 253 254 254 254 254 254 255 255 255 255 255 256 256 256 256 256 256 256 256 257 257 257 257 257 257 257 257 257 257 258 258 257 257 257 257 257 257 256 256 256
255 255 255 255 255 254 254 254 254 254 254 254 254 254 254 254 254 254 254 254 253 253 253 253 253 253 253 253 253 252 252 252 252 252 252 252 252 252 253 253 253 253 253 253 253 254 254 254 254 254 255 255 255 255 255 256 256 256 256 256 256 256 257 257 257 257 257 257 257 257 257 257 257 258 258 258 258 257 257 257 257 257 256 256 255
Wind_Speed
17 18 19 19 21 22 22 23 23 23 24 24 25 26 25 24 22 21 20 19 17 16 16 16 15 13 12 11 11 10 10 10 10 10 9 9 8 8 8 7 6 5 5 6 6 6 6 6 6 7 6 6 6 6 6 6 6 5 5 5 5 4 5 4 4 8 10 10 11 13 16 17 17 18 18 18 17 17 17 17 15 16 17 17 17
18 19 19 19 20 21 22 23 23 24 24 25 26 26 26 25 23 22 21 20 18 17 16 16 15 14 13 12 11 11 10 10 10 10 9 9 8 8 8 7 7 6 5 5 6 7 7 6 6 7 6 6 6 6 6 6 5 6 6 6 6 6 5 5 5 6 10 13 12 13 16 16 16 18 19 20 20 19 17 17 16 17 18 19 18
19 19 20 20 20 20 21 22 23 24 25 25 26 26 26 26 24 23 22 20 19 17 16 16 15 15 14 13 12 11 10 10 10 10 9 9 9 8 8 8 7 7 6 5 6 6 7 7 7 7 6 5 5 6 6 5 5 6 6 6 6 6 6 7 6 5 9 12 13 14 17 17 16 18 19 19 19 19 19 18 16 17 18 19 18
19 20 20 20 20 21 22 22 23 24 25 25 26 26 26 26 25 24 22 21 20 18 17 16 16 16 14 13 13 12 11 11 10 10 10 10 10 9 8 8 8 8 7 6 6 6 7 7 7 7 6 5 5 6 5 5 5 5 6 6 6 6 6 6 6 6 7 10 13 15 16 16 16 17 19 19 19 18 18 18 17 17 18 19 19
19 20 20 20 20 20 21 22 23 24 25 25 26 25 25 26 26 25 23 21 20 19 18 17 16 16 15 14 13 12 12 12 11 11 10 10 10 10 9 9 9 8 8 8 7 7 6 7 7 7 6 6 6 6 5 5 5 5 5 6 6 6 6 6 7 8 8 11 13 14 14 15 15 16 18 21 21 20 20 19 18 20 21 21 20
20 20 20 20 20 19 20 21 22 24 24 25 25 25 25 25 25 25 23 22 21 20 19 18 17 17 16 15 14 13 12 12 12 11 11 11 10 10 10 10 9 9 9 9 8 7 7 7 7 7 6 6 6 6 6 5 5 5 6 6 6 6 7 7 7 8 8 10 11 12 13 14 15 16 17 20 21 21 23 24 22 23 24 25 24
21 21 21 20 19 18 18 19 21 22 23 23 24 24 24 24 24 25 24 22 21 20 19 18 18 18 17 16 15 15 13 13 13 12 12 12 11 11 11 10 10 10 9 9 9 8 8 7 7 7 7 7 6 6 6 6 6 5 6 6 6 6 7 7 7 8 9 9 9 10 12 13 14 16 17 18 18 18 23 26 27 28 28 29 28
21 21 20 20 19 18 18 19 19 20 21 22 22 22 23 23 23 24 24 23 22 21 19 19 18 18 18 17 16 16 15 14 13 13 13 12 12 11 11 11 10 10 10 10 10 9 8 8 8 7 7 7 7 6 6 6 6 6 6 6 6 7 7 7 7 7 8 9 9 10 12 12 13 16 17 19 19 18 21 23 25 28 30 32 29
22 21 21 20 20 19 19 18 18 19 19 20 20 21 21 22 22 23 24 23 22 21 20 19 19 19 18 18 17 17 16 15 14 14 14 13 12 11 11 10 10 10 11 11 11 10 9 8 8 8 8 8 7 7 6 6 6 6 6 6 6 7 7 7 7 8 8 10 11 12 14 14 15 17 19 19 18 19 20 21 22 26 30 32 28
22 22 21 21 20 20 19 19 18 18 18 19 19 20 21 21 22 22 23 23 23 22 21 20 20 19 19 18 18 18 17 16 15 15 15 14 13 12 11 10 10 10 10 11 11 11 10 9 9 9 8 8 8 8 7 6 6 6 7 7 8 8 8 8 8 7 8 10 11 13 14 15 16 17 17 18 18 19 20 21 23 26 29 29 27
21 21 21 21 20 20 20 19 18 18 17 18 19 20 20 21 22 22 23 23 23 23 22 21 20 20 19 18 19 18 17 16 16 16 15 14 14 13 12 10 9 9 9 10 11 11 11 11 10 9 9 9 9 9 8 7 7 6 7 8 9 9 9 10 9 8 8 9 10 12 13 16 18 17 17 19 20 20 20 20 21 23 24 21 19
20 20 20 21 21 20 20 19 19 18 18 18 18 19 20 21 22 23 23 23 23 23 23 22 21 20 19 19 19 18 17 16 16 16 16 15 15 17 16 14 12 11 9 8 9 9 10 11 11 11 10 10 10 10 9 8 8 8 8 8 8 8 8 9 10 9 9 8 10 12 12 16 19 18 18 19 20 21 22 21 20 20 21 18 18
19 19 19 20 21 20 20 19 19 19 18 18 18 19 20 21 21 22 23 23 23 23 23 22 21 20 20 19 19 18 17 16 15 16 16 15 15 19 21 20 19 18 15 11 10 9 9 9 10 11 11 11 11 10 10 10 9 9 10 9 9 9 8 8 9 10 10 9 10 12 12 15 18 20 18 17 20 21 21 22 21 20 22 22 24
18 19 19 19 20 20 20 20 19 19 18 18 18 19 19 20 20 21 21 22 22 22 22 22 21 20 20 19 19 19 17 15 15 15 15 15 15 18 21 22 22 22 21 18 15 12 10 10 10 10 10 11 12 11 11 11 11 11 12 11 11 10 8 8 8 9 9 9 10 12 13 14 17 19 17 16 18 19 19 21 22 22 23 24 27
19 19 19 20 20 20 21 20 20 19 19 19 19 19 19 20 20 20 20 20 21 21 21 21 20 20 19 18 19 19 17 15 15 15 15 15 15 16 20 22 22 22 23 22 20 17 14 12 11 11 11 11 12 12 12 12 12 13 13 13 11 10 8 7 7 8 8 8 9 12 14 15 16 17 16 15 16 18 18 20 21 21 23 25 28
19 20 20 20 20 20 21 21 21 20 19 19 19 18 19 19 20 20 20 20 19 19 18 18 18 18 18 17 18 19 18 16 15 15 15 15 15 16 19 21 21 21 22 22 23 21 17 15 13 12 12 11 11 12 12 12 13 14 15 14 12 10 7 6 7 9 8 7 9 11 14 15 15 14 14 14 16 19 19 19 20 20 22 24 24
20 20 20 20 19 19 19 20 21 21 20 19 19 19 19 19 19 19 19 19 19 18 18 17 17 17 17 17 18 19 19 16 15 15 15 14 14 15 18 20 21 22 21 21 22 22 21 17 14 13 12 11 10 10 11 13 14 15 16 14 13 11 8 6 7 9 9 8 9 11 13 14 14 14 15 14 16 18 17 17 18 18 20 18 14
20 20 20 20 19 19 18 18 20 20 20 20 19 19 19 19 19 18 18 19 19 19 19 18 18 17 17 17 17 19 19 17 16 16 14 13 13 15 17 18 20 22 22 21 21 22 22 20 17 14 13 11 10 10 10 13 14 15 16 15 15 14 10 7 7 9 10 10 10 11 12 13 13 14 15 14 14 14 13 15 16 17 18 15 12
20 20 20 19 18 18 16 16 18 19 20 20 20 20 19 19 18 18 17 18 18 18 18 18 18 17 17 17 17 17 19 18 17 17 16 15 14 15 17 18 20 21 21 21 21 20 21 21 20 18 15 12 10 10 10 12 14 15 15 15 16 16 11 8 9 10 11 11 13 14 12 11 12 13 13 13 12 12 13 14 15 15 16 17 16
20 20 19 18 17 16 15 15 16 18 19 19 19 19 19 18 18 17 17 17 17 18 18 18 18 18 17 17 16 17 18 18 17 17 17 17 16 16 18 19 20 20 21 21 21 20 19 20 21 20 17 13 11 11 10 11 13 13 13 14 15 15 11 10 11 12 12 14 16 17 14 12 13 13 12 11 10 11 13 13 15 15 15 16 17
20 19 19 18 17 16 14 14 15 16 17 17 18 17 16 17 17 16 16 16 16 17 17 17 18 18 17 17 17 16 16 16 16 15 15 16 16 15 17 19 20 20 20 20 21 21 20 19 18 18 17 14 12 11 11 12 12 13 14 14 14 13 12 12 13 12 13 16 18 18 14 13 14 13 11 11 11 12 13 13 14 15 14 15 16
19 19 18 17 16 15 14 13 13 14 15 15 16 16 16 16 16 15 15 16 16 16 16 16 16 16 16 16 16 15 14 14 14 14 14 14 14 13 15 16 17 18 19 19 19 20 20 18 17 17 15 13 12 12 12 12 12 13 14 14 12 12 12 13 13 14 16 18 19 17 14 13 15 15 14 14 13 13 14 15 15 15 15 16 16
18 18 17 16 14 13 14 14 13 13 14 14 15 15 15 16 16 15 15 16 16 16 16 16 16 16 16 16 16 16 15 14 14 14 14 14 13 13 13 14 14 15 17 19 20 20 19 18 17 14 12 11 11 11 11 12 12 13 13 12 11 11 12 13 15 16 18 19 18 16 14 14 15 16 17 18 17 17 17 16 16 16 17 18 17
18 18 17 16 14 14 14 14 14 13 13 14 14 15 15 16 16 15 15 16 16 16 16 16 16 16 16 16 16 16 16 16 16 15 15 14 13 13 13 13 13 13 15 16 17 18 17 15 12 10 9 10 11 11 11 11 12 12 12 11 12 13 14 16 17 18 19 18 16 15 14 14 15 16 18 19 19 19 19 18 18 17 18 19 20
18 17 17 16 15 14 14 14 14 14 13 13 14 15 15 16 16 16 16 16 16 16 16 16 16 16 16 16 16 16 17 17 17 16 16 15 14 13 12 12 12 12 12 12 12 11 11 10 8 9 10 11 11 12 12 12 12 12 12 13 14 15 15 17 17 17 17 17 15 15 14 14 15 16 18 19 20 20 20 20 19 19 19 21 22
17 16 17 16 15 15 15 15 15 15 13 12 13 13 14 16 17 17 17 17 16 16 15 15 15 16 16 16 17 17 17 17 17 17 17 16 14 13 13 13 12 11 11 11 11 10 9 9 9 10 11 11 11 12 12 11 11 12 13 14 15 15 15 15 15 15 15 15 14 15 14 14 16 17 18 19 20 20 20 21 22 22 21 23 25
17 16 16 16 15 15 16 16 17 16 15 14 14 13 14 15 15 16 17 17 16 15 15 15 16 16 16 17 17 17 16 16 17 18 18 17 16 15 15 14 13 12 11 11 11 12 11 11 11 11 11 11 11 11 11 12 12 12 12 12 12 12 12 12 13 13 14 14 14 14 14 15 16 18 18 19 20 19 19 21 22 23 24 25 27
17 16 15 15 15 15 15 17 17 18 17 16 16 15 14 14 14 14 15 16 16 16 16 16 16 16 16 17 17 17 16 16 17 18 18 17 17 17 16 15 14 13 12 11 11 11 12 12 12 12 12 12 12 12 11 11 11 9 9 9 9 10 10 11 11 12 12 12 13 14 14 15 16 18 19 20 21 19 19 20 21 23 24 24 24
17 17 16 15 15 15 16 17 17 18 18 18 17 15 13 13 13 13 13 13 14 15 15 15 15 16 16 16 17 17 16 17 17 17 16 16 16 16 16 15 15 14 13 13 12 12 12 13 13 13 13 12 12 12 11 10 8 7 8 9 9 9 9 9 10 11 11 11 12 13 14 15 16 18 19 20 21 20 19 20 21 22 23 23 23
18 18 17 17 16 16 17 17 17 17 18 18 19 17 15 13 11 10 12 13 12 12 13 13 14 15 15 15 14 14 15 16 16 16 16 16 15 14 14 14 14 14 13 13 13 13 13 13 14 14 14 13 13 12 12 11 10 10 10 10 9 9 8 9 9 10 10 10 11 12 13 14 16 17 18 20 22 21 20 20 20 21 22 22 23
18 18 17 17 17 16 17 17 16 16 17 17 18 19 19 18 14 11 12 14 13 11 11 12 12 13 14 14 14 13 13 15 16 16 16 16 15 14 15 15 14 14 13 12 12 13 13 13 14 14 14 14 14 13 12 12 12 12 12 11 10 9 8 8 8 8 9 9 10 11 12 13 15 17 18 19 21 21 20 20 21 21 21 21 21
17 17 17 17 16 16 16 15 15 16 16 16 17 18 19 21 20 18 17 17 14 11 12 13 13 13 13 13 14 14 14 15 16 16 15 16 15 14 14 13 12 12 12 11 11 12 12 13 14 14 14 14 14 14 13 13 13 13 13 13 12 10 9 8 8 8 9 9 10 10 11 13 14 16 17 18 19 21 21 21 21 22 22 22 22
16 16 16 16 16 15 14 14 14 15 15 15 16 17 17 19 20 22 23 21 17 14 14 15 14 14 13 12 13 14 15 15 16 16 15 15 14 13 12 11 11 11 12 11 10 11 11 12 13 13 13 14 14 14 14 14 15 15 14 13 12 11 9 8 8 8 8 8 9 10 11 12 14 16 17 17 17 19 20 21 22 22 22 22 24
14 15 15 15 14 14 14 14 14 14 14 14 15 16 16 15 16 18 22 24 23 22 20 18 15 14 13 13 13 14 14 15 15 15 15 14 13 13 14 14 13 12 11 10 10 10 10 10 11 12 13 13 14 14 15 14 14 14 13 13 12 11 9 8 7 7 8 8 9 10 11 12 14 15 16 17 17 18 20 20 21 22 21 22 24
14 14 14 14 13 13 13 13 13 13 14 14 14 15 15 15 15 15 17 19 21 23 23 21 18 15 13 13 13 14 14 14 15 15 14 13 13 14 15 14 13 12 11 11 11 11 10 11 11 12 13 14 14 14 15 15 14 13 12 12 11 10 8 8 7 7 7 8 8 10 11 13 14 14 15 16 16 18 20 20 20 21 21 22 24
15 15 15 15 14 13 12 12 12 12 12 13 13 14 14 14 14 15 15 16 17 19 20 21 20 17 14 13 14 15 15 15 15 15 13 12 13 14 14 13 13 13 13 12 12 12 11 11 11 12 13 14 14 13 14 14 13 12 11 11 10 9 7 7 6 7 8 8 9 11 12 13 14 14 14 15 17 17 19 20 21 21 22 22 24
15 15 16 16 15 14 14 13 12 11 11 12 12 13 14 14 14 14 15 16 17 17 18 20 21 21 19 17 16 16 16 16 15 14 12 11 12 12 12 11 12 12 13 13 12 12 11 10 11 12 13 13 13 13 12 12 12 11 10 10 10 8 6 6 6 7 8 9 11 12 13 13 13 13 14 16 17 18 19 20 21 22 23 24 23
15 15 16 16 15 15 15 14 13 13 12 12 13 13 14 14 14 15 15 16 16 17 18 19 20 21 21 20 18 17 17 17 16 15 14 12 12 12 11 11 11 11 12 12 12 12 11 10 10 11 12 13 12 12 11 10 10 10 10 10 9 7 6 6 7 8 9 11 12 12 13 14 14 13 14 16 17 18 20 20 21 22 25 25 24
15 16 16 16 15 15 15 15 14 14 14 14 14 14 15 15 15 15 16 17 17 17 17 18 18 18 18 19 19 18 19 18 18 17 16 14 12 11 11 11 10 10 11 11 11 12 12 11 11 11 12 13 12 10 9 9 9 9 9 9 8 6 5 5 7 9 11 12 13 13 14 14 14 14 15 16 17 18 19 20 21 22 24 26 26
16 17 17 17 16 16 15 14 14 14 14 15 15 14 14 14 15 15 16 16 17 17 17 17 17 17 17 17 18 18 18 18 17 16 16 15 13 12 11 11 11 11 11 11 11 12 12 12 11 11 12 12 12 10 8 8 8 8 8 7 6 5 5 7 9 11 12 13 14 14 15 15 15 15 15 15 16 18 19 20 22 23 23 25 26
16 17 18 18 17 16 16 15 14 14 14 14 14 14 14 13 14 14 14 15 16 16 16 16 16 15 15 15 15 15 16 16 16 16 15 14 14 13 12 12 12 11 11 11 11 11 12 12 12 12 12 12 12 11 9 8 7 6 5 5 5 6 7 9 11 13 14 14 15 15 15 15 15 15 15 16 17 18 19 21 23 24 24 25 25
16 17 17 17 17 16 16 15 14 14 14 14 14 13 13 13 13 13 14 15 15 16 17 17 16 15 14 14 15 15 15 15 15 15 15 14 14 13 12 12 12 12 12 12 12 12 12 12 12 12 13 13 13 12 12 11 10 9 8 8 8 10 11 13 14 14 15 16 16 16 15 15 15 15 16 17 17 19 20 21 23 24 25 25 26
15 16 17 17 17 16 16 15 14 14 14 14 14 14 13 13 13 13 14 15 15 15 16 17 17 16 15 15 15 15 15 15 15 15 14 14 13 13 13 12 12 12 12 12 12 12 12 12 12 12 13 13 14 14 14 14 14 13 13 13 13 14 15 15 15 15 16 17 16 15 15 15 15 15 16 17 18 19 21 22 24 25 26 27 27
15 16 16 17 17 16 16 15 15 14 14 14 14 14 13 13 13 13 14 14 14 14 15 15 16 17 17 16 16 15 15 15 15 14 14 13 14 14 14 14 13 13 13 12 12 12 12 12 12 13 14 14 15 15 16 16 16 16 16 16 16 17 17 17 17 17 17 17 16 15 15 15 15 16 16 17 18 20 21 23 25 26 27 27 27
15 16 16 17 17 17 16 15 15 14 14 14 15 15 14 14 14 14 14 14 14 14 15 15 15 16 17 16 16 16 16 15 15 14 14 14 14 15 15 15 15 14 14 13 12 12 12 12 13 14 15 16 15 15 15 15 15 15 15 16 16 17 17 17 17 17 17 16 16 15 15 15 15 16 17 17 18 20 22 24 25 26 27 28 27
16 16 16 17 17 17 17 16 15 15 14 14 15 16 15 15 14 14 14 14 14 15 15 15 15 15 15 16 16 16 15 15 15 15 14 14 14 14 15 15 15 15 14 13 12 12 12 12 13 15 16 16 15 15 14 14 14 14 14 15 16 16 16 16 16 15 15 14 14 14 14 15 16 16 17 18 19 21 23 24 25 26 27 27 28
16 16 17 17 17 18 18 17 16 15 15 14 15 16 16 16 16 15 15 14 15 15 16 16 15 15 15 16 16 16 15 16 16 15 15 15 14 15 15 16 15 15 14 13 12 11 12 12 13 14 15 15 14 13 13 12 12 13 13 14 14 14 13 13 13 13 12 12 12 13 14 15 16 16 17 18 20 21 23 25 26 26 28 29 30
17 17 17 17 17 18 18 17 17 16 16 16 16 16 16 16 17 16 16 16 16 16 16 16 16 16 16 16 15 15 16 16 16 16 15 15 15 15 15 15 14 14 14 13 12 12 12 13 13 13 13 13 13 13 12 12 12 11 11 11 11 10 10 9 9 9 9 10 11 12 14 15 16 17 18 19 21 22 24 25 26 28 30 31 33
18 18 18 18 18 17 17 17 17 17 17 16 17 17 17 17 17 17 17 17 17 17 17 16 16 16 16 16 16 16 16 16 16 17 16 15 15 15 14 13 13 13 13 14 14 14 13 13 13 13 12 12 12 12 12 12 12 11 10 9 8 8 8 8 8 8 9 10 12 13 14 15 16 17 19 20 21 23 24 26 27 29 31 32 33
19 19 18 18 18 18 17 17 17 17 17 16 17 17 18 18 18 18 18 18 18 17 17 17 16 16 16 16 16 16 16 16 17 17 16 15 14 14 14 14 14 14 15 15 15 15 14 13 12 12 12 11 12 12 11 11 11 10 9 8 8 8 8 8 8 10 11 11 12 13 14 15 17 18 20 21 23 24 25 27 28 29 31 32 34
20 20 19 19 18 18 18 17 17 17 17 16 17 17 18 18 19 18 18 18 18 18 17 17 17 17 16 16 16 16 16 16 17 17 16 15 14 14 15 16 16 16 16 16 15 14 13 12 12 12 11 11 11 10 10 10 10 9 9 9 9 8 9 9 10 11 12 12 13 14 14 16 18 20 21 22 23 25 26 28 29 30 32 32 33
Wind_Direction
335 328 322 316 312 311 308 306 303 300 297 293 290 287 285 283 283 283 283 283 283 284 286 288 290 293 295 296 297 298 299 300 298 298 299 298 299 300 299 301 304 306 311 309 308 308 305 305 304 305 306 309 313 311 307 305 303 302 304 301 302 306 305 287 260 283 305 322 334 339 342 344 345 347 350 354 358 0 0 360 1 2 360 358 356
335 331 327 322 318 314 310 308 304 301 299 296 293 290 286 284 283 283 282 282 282 283 285 287 288 289 291 292 293 294 295 296 294 294 295 293 294 293 292 294 294 293 296 298 300 300 299 301 301 300 301 304 307 306 304 303 302 301 300 296 299 303 308 308 292 283 301 318 332 337 341 346 346 347 351 353 354 356 359 360 0 3 4 0 357
334 332 329 326 323 318 314 311 308 304 302 300 297 293 289 286 283 282 282 282 283 284 284 285 285 286 287 288 289 291 292 291 290 290 290 289 289 287 287 287 285 286 284 283 288 289 291 297 297 295 296 301 302 299 300 302 303 304 301 299 303 304 307 309 304 292 300 315 329 336 341 345 347 347 349 352 353 352 354 359 359 0 4 3 357
336 333 330 328 326 322 319 316 311 308 306 304 302 298 293 288 284 282 281 281 283 284 284 283 283 283 283 284 287 289 289 288 287 287 286 284 283 281 282 280 279 279 277 275 276 277 283 289 290 291 293 295 296 293 295 300 303 307 307 307 306 306 310 311 308 304 304 311 320 330 337 341 344 347 346 347 349 350 352 356 358 357 1 4 2
338 335 332 329 328 326 324 320 315 312 310 308 306 303 297 290 285 282 280 281 283 283 284 284 283 282 282 282 285 287 288 287 285 284 283 281 279 278 277 276 275 274 272 271 269 269 275 279 281 284 285 287 286 285 288 293 298 306 310 310 311 315 320 319 313 309 308 311 316 325 334 337 341 348 349 347 346 347 348 351 358 358 355 359 4
342 340 337 332 331 331 327 322 318 315 312 310 308 305 300 294 287 282 279 280 281 282 284 284 284 284 282 283 284 285 286 285 284 283 281 278 276 276 275 272 271 269 268 269 267 266 267 268 273 276 277 280 278 281 287 289 296 306 308 311 315 320 321 318 316 314 313 317 318 324 334 340 343 347 350 351 351 350 348 347 352 356 352 353 359
344 343 340 336 334 332 328 323 320 317 315 313 310 307 303 297 290 283 279 278 279 282 284 284 285 285 284 284 284 284 284 283 282 281 279 278 276 275 274 272 270 268 267 267 267 266 265 263 266 268 270 273 274 280 289 292 298 303 305 312 315 316 317 315 318 320 321 326 328 329 336 343 344 343 346 352 356 357 356 350 345 348 350 349 350
346 344 341 338 335 331 328 325 322 320 319 317 314 310 306 300 293 286 280 277 278 281 282 283 284 285 286 286 284 283 283 282 281 280 277 277 275 274 273 272 271 269 268 269 268 265 265 265 267 267 270 272 272 278 284 291 300 303 307 317 318 318 319 317 323 329 332 337 337 336 339 341 344 344 345 355 358 353 355 350 338 337 341 342 346
349 348 344 341 336 332 328 325 324 323 323 322 320 316 310 304 296 289 283 279 278 279 280 281 283 285 286 287 285 283 282 281 281 279 276 275 273 272 272 272 274 273 271 270 268 267 265 265 268 271 272 273 275 277 283 290 297 302 311 321 324 325 325 324 330 334 339 345 345 343 342 341 348 349 346 353 354 344 345 345 334 332 334 336 343
350 349 347 343 338 333 330 328 328 328 329 329 326 320 314 307 300 293 288 284 280 277 278 279 281 284 286 286 285 284 283 282 281 278 275 274 269 265 267 273 277 278 276 274 271 270 267 265 267 270 272 272 273 274 280 285 291 301 314 322 328 330 330 329 331 335 341 348 348 346 341 335 343 348 342 342 345 340 341 340 332 332 334 335 341
350 349 346 344 340 338 337 336 336 335 334 332 328 323 316 309 303 298 293 289 284 279 277 277 281 284 285 285 285 285 285 284 280 276 273 270 264 261 263 269 276 282 284 281 276 272 270 269 268 269 270 270 269 269 269 271 276 289 305 319 326 328 329 327 324 327 334 339 342 343 337 329 334 342 340 339 340 337 335 334 329 330 334 335 332
349 349 347 345 344 344 343 342 341 339 337 333 328 324 317 310 306 302 298 295 289 283 279 278 281 283 284 285 285 285 286 284 279 274 270 265 260 261 264 265 270 280 287 289 288 282 276 273 271 271 270 269 267 265 263 260 262 271 287 304 313 315 320 320 315 315 317 322 328 333 333 329 329 336 339 338 335 330 328 328 327 325 327 323 310
350 350 350 349 348 348 346 343 341 338 335 331 326 323 319 314 311 307 304 301 294 288 283 281 282 283 284 285 285 286 286 285 280 274 269 262 255 259 266 267 267 271 273 277 287 291 290 287 281 276 273 270 268 265 261 259 257 264 275 287 296 299 303 310 309 305 303 305 312 321 332 332 326 329 337 334 326 323 322 320 321 321 320 316 309
351 352 353 352 351 351 349 346 343 339 333 329 325 322 320 317 315 313 311 307 301 295 291 287 285 285 285 286 287 287 287 285 282 277 272 267 257 256 264 268 267 266 265 266 271 277 288 295 296 294 283 274 271 268 263 262 260 263 269 275 282 285 287 297 305 302 297 292 296 312 328 328 322 324 331 328 319 315 313 312 315 317 316 313 312
353 353 353 352 352 351 351 349 347 343 338 333 327 324 321 318 318 317 315 312 307 303 299 294 290 288 288 288 287 286 288 287 283 280 278 273 265 260 263 268 268 265 262 261 262 266 273 280 290 301 298 286 278 270 265 265 263 264 268 272 275 275 277 287 297 303 301 291 296 317 326 325 323 322 325 324 312 305 304 307 311 313 312 313 315
353 353 352 351 350 350 350 349 347 345 342 338 332 328 324 321 319 319 316 313 310 307 304 301 298 295 292 290 288 287 289 289 286 285 284 279 274 266 263 266 269 268 265 262 260 260 263 267 277 291 298 298 288 274 267 266 263 264 268 272 274 272 274 284 291 300 306 299 304 318 319 316 315 310 309 309 301 299 303 307 310 314 316 319 320
353 352 350 349 347 347 348 346 345 343 341 337 334 330 327 323 321 321 317 313 312 310 308 305 302 299 293 289 288 289 290 291 290 289 287 284 281 274 268 268 270 270 270 267 262 258 258 261 267 277 290 300 296 281 270 264 263 266 269 274 277 275 275 286 289 295 301 293 291 302 307 308 305 300 301 301 297 300 307 310 315 321 323 326 322
352 350 347 345 342 341 344 343 341 340 338 335 332 327 325 324 323 322 319 315 313 312 310 308 305 302 299 295 294 293 293 295 295 293 290 286 282 279 277 276 273 272 273 271 267 261 257 258 261 267 278 291 294 289 275 264 263 265 268 272 276 274 278 292 289 288 294 293 295 305 311 312 310 308 310 307 303 306 311 316 322 324 322 321 311
350 346 343 340 337 336 338 338 337 337 336 334 331 328 327 326 324 323 320 318 317 316 315 314 311 310 308 305 303 300 300 302 301 298 296 291 284 280 280 279 277 276 274 273 272 267 260 257 258 262 269 277 284 287 282 271 266 267 267 268 270 272 283 300 292 289 296 301 309 316 319 319 319 318 315 312 309 309 313 318 322 322 318 314 312
346 342 338 336 335 334 335 336 338 339 337 335 334 333 334 331 329 327 324 322 321 320 320 319 317 318 317 315 313 310 309 309 307 302 299 295 290 285 282 280 278 277 275 273 272 271 267 262 260 262 264 267 274 282 283 276 270 269 267 263 265 275 292 298 290 292 301 308 314 319 320 321 322 320 315 311 307 307 312 319 321 320 316 311 311
343 340 337 337 337 336 335 339 344 343 341 339 338 338 341 340 338 336 333 331 330 327 327 326 323 323 325 324 323 323 321 320 317 311 305 300 296 291 286 282 280 278 276 273 270 271 271 269 268 268 265 262 268 279 283 277 267 263 265 266 271 284 291 286 284 290 298 305 311 313 314 316 318 319 317 314 312 312 317 320 320 319 314 310 309
343 340 339 340 341 339 337 340 344 343 342 344 343 343 347 346 345 345 344 342 341 338 337 336 333 330 332 332 334 335 335 334 332 328 322 313 306 300 295 290 285 281 278 274 271 273 275 275 276 274 264 259 270 283 286 279 263 254 260 269 277 279 273 271 278 286 293 301 307 307 309 315 318 319 322 323 323 322 321 321 320 318 314 311 308
345 342 343 343 342 341 339 340 340 338 339 342 342 343 348 348 348 351 352 348 346 344 343 343 339 336 336 337 340 342 343 342 341 339 335 328 320 312 307 301 292 283 279 278 276 276 277 278 278 273 261 263 282 293 289 280 267 257 256 260 262 261 260 267 277 284 291 299 302 302 307 317 321 322 326 328 329 328 324 322 321 318 314 312 310
347 346 347 347 346 344 343 343 341 337 336 338 339 342 346 348 348 351 354 352 347 344 344 344 340 337 336 336 339 343 343 343 341 338 335 331 325 320 315 309 300 291 287 287 284 278 277 278 276 269 266 277 290 293 283 272 262 256 253 250 253 259 266 273 280 285 291 295 297 300 307 319 325 326 328 329 329 328 326 322 321 320 317 314 313
349 349 350 351 352 350 348 349 349 348 347 345 346 349 351 351 351 352 354 352 346 342 343 343 341 338 336 334 335 337 338 339 340 341 337 332 327 325 322 317 309 299 294 294 294 289 285 284 280 277 282 289 292 290 283 270 256 252 254 257 264 270 275 279 283 286 289 292 294 299 308 319 324 326 327 327 328 328 326 322 321 322 321 318 316
351 351 352 354 355 354 354 356 356 357 359 356 355 359 359 356 354 353 353 352 348 346 346 346 345 342 339 337 335 333 334 337 341 344 345 341 337 335 333 328 321 311 299 293 295 299 298 292 287 288 291 294 293 292 286 274 260 257 261 267 273 278 279 281 283 284 286 289 294 299 309 318 321 324 326 325 326 329 329 326 325 326 327 326 323
354 355 355 356 357 358 0 360 357 357 358 356 355 358 360 357 355 353 352 353 353 352 350 349 348 344 341 340 341 339 338 339 342 344 346 345 342 339 336 333 330 326 317 302 294 295 295 291 287 289 291 293 296 294 290 284 278 274 274 276 280 281 280 279 280 279 282 288 293 300 309 315 318 322 325 324 326 331 331 329 329 329 331 331 328
358 359 359 358 359 1 2 1 358 357 357 355 354 355 354 351 349 348 349 351 353 351 348 346 347 345 343 343 344 345 344 343 343 342 340 338 335 332 330 330 329 328 327 320 308 298 291 285 282 283 285 289 294 296 295 293 289 286 290 295 294 289 284 281 277 276 280 286 292 300 308 313 317 322 324 324 326 331 332 331 331 330 331 333 330
359 1 0 359 0 2 1 1 0 360 359 356 354 356 356 352 346 341 341 346 350 349 347 347 348 348 346 346 346 345 342 340 340 338 334 330 327 325 324 325 323 320 319 318 314 306 296 288 281 278 279 282 286 292 298 299 293 290 300 308 306 296 286 279 277 278 281 286 292 298 306 312 316 321 324 324 325 329 331 332 332 330 331 332 328
358 359 359 359 360 360 358 358 359 360 0 358 355 354 356 1 3 352 343 348 356 356 353 353 352 350 347 344 342 340 337 335 335 335 334 332 328 324 322 322 320 317 314 311 305 297 291 289 285 280 279 278 280 287 296 299 298 299 305 312 312 301 286 276 276 277 278 283 291 298 305 311 316 321 324 323 324 327 330 331 332 330 330 330 327
358 357 356 356 358 358 355 355 356 357 359 1 359 356 353 354 1 3 356 357 2 1 357 354 350 348 347 343 339 337 336 337 338 337 334 331 327 322 319 318 317 316 314 309 301 290 283 282 283 284 283 279 280 286 292 296 300 301 304 310 313 307 294 281 275 275 276 283 292 299 305 311 316 319 321 321 322 324 328 330 331 330 329 330 325
358 357 355 353 355 355 353 353 355 356 357 357 360 1 356 350 350 351 353 357 0 358 355 352 345 343 346 345 342 340 339 338 339 339 338 336 332 327 323 322 321 320 315 308 304 300 292 283 282 285 286 284 285 289 291 293 296 296 297 302 308 309 302 290 281 277 278 284 293 300 306 312 315 316 318 320 320 323 326 329 330 330 330 330 326
359 357 354 351 352 352 351 353 354 355 357 355 355 358 358 354 348 343 343 347 351 352 354 356 351 345 344 345 344 342 341 340 341 341 341 340 340 336 329 324 322 320 317 314 314 314 307 296 290 289 288 288 290 292 292 292 294 295 295 297 303 307 303 293 285 282 282 287 296 302 308 313 314 314 316 317 319 322 325 327 329 330 330 329 328
359 359 356 352 351 350 351 353 352 351 353 354 353 354 354 353 351 345 342 343 344 345 350 357 1 358 352 348 346 344 343 344 347 348 345 343 341 333 323 316 313 311 313 319 323 323 318 310 302 297 296 295 294 293 293 293 295 297 298 299 303 305 299 289 285 286 290 295 301 306 310 313 313 314 315 316 319 322 323 325 327 329 329 328 326
357 358 358 356 353 350 351 352 349 346 348 350 351 350 348 347 348 348 346 344 341 339 343 350 358 3 1 355 350 347 347 348 350 351 350 349 344 336 329 329 329 324 321 323 324 324 324 322 314 306 302 300 299 297 295 295 296 298 301 304 306 304 296 289 287 290 297 304 308 311 312 312 314 314 313 315 319 320 321 324 327 327 326 326 324
355 355 356 356 355 353 352 351 348 345 346 346 344 343 343 345 346 346 346 346 343 340 341 344 349 354 359 360 354 348 349 351 351 348 347 349 346 344 345 349 348 341 335 328 321 318 320 323 324 317 306 300 298 297 297 297 298 300 302 304 305 302 293 291 295 301 307 312 313 313 312 311 313 315 313 314 317 318 320 324 325 324 325 326 322
354 354 353 353 354 352 351 351 350 347 345 344 342 341 344 347 348 347 346 347 347 344 343 345 347 349 354 359 358 352 351 354 353 349 347 349 349 349 352 352 347 343 341 336 329 321 315 318 328 330 320 307 298 294 296 298 299 300 301 302 302 295 286 291 303 308 310 312 311 310 310 310 312 314 313 313 316 319 322 324 324 324 326 326 321
351 353 352 349 349 349 348 348 348 347 345 345 344 345 346 347 347 347 346 346 346 345 345 347 350 350 351 353 355 354 354 355 357 358 358 358 353 351 350 347 342 339 338 338 337 333 326 324 330 335 333 323 308 295 294 300 302 301 300 299 297 290 282 290 305 308 307 308 307 306 307 309 311 314 313 312 316 320 323 324 324 324 325 325 322
343 348 349 348 347 347 346 346 345 344 344 345 346 345 346 345 345 345 344 343 344 345 345 346 349 351 350 349 351 353 353 354 356 358 359 359 356 352 347 342 340 338 335 334 336 335 335 335 337 340 342 339 327 309 295 294 295 294 294 295 292 286 281 293 304 305 303 303 303 303 306 310 313 314 312 313 318 322 322 323 325 325 323 321 320
337 341 345 347 347 346 345 345 344 344 344 345 344 344 343 342 342 341 341 341 342 343 345 346 347 349 349 349 350 351 350 350 352 353 352 353 354 352 347 343 340 337 335 333 332 330 330 333 336 339 342 345 343 336 321 305 293 288 289 289 282 275 282 294 302 303 303 301 301 303 309 314 316 314 314 317 321 322 322 323 325 325 322 320 320
334 337 341 344 344 343 343 342 342 343 343 343 343 342 340 339 338 337 337 338 340 340 342 344 345 346 347 347 348 347 345 344 345 345 345 347 348 346 344 341 338 336 334 332 329 326 323 323 327 331 332 333 336 339 338 333 324 312 304 298 286 283 291 299 302 304 303 300 301 307 313 317 317 315 316 320 322 322 323 324 325 325 324 323 324
334 336 339 341 341 342 342 340 339 340 341 341 343 343 339 336 335 334 334 336 338 338 338 339 342 344 344 343 342 341 339 338 339 339 339 340 341 341 340 337 334 332 331 328 326 322 317 315 315 319 321 321 321 322 322 322 323 319 314 309 302 297 298 301 302 303 301 299 302 309 315 317 317 317 319 321 322 323 325 326 326 326 326 326 326
334 334 336 337 338 340 341 340 338 338 339 340 342 342 339 336 334 333 332 333 336 338 338 338 340 341 342 341 339 337 336 337 337 337 338 338 338 339 338 335 331 329 327 326 323 319 314 311 309 310 311 312 311 310 309 307 307 306 304 302 300 298 299 300 301 300 298 299 304 310 314 316 318 318 320 322 323 324 326 327 327 328 328 327 327
333 333 332 333 335 338 340 339 336 335 336 337 338 340 340 339 336 334 333 333 335 338 338 338 338 338 338 339 339 337 338 340 340 340 339 338 337 337 335 332 329 326 323 323 322 317 312 310 308 306 306 306 305 304 302 300 298 297 296 295 295 295 296 297 297 296 297 300 304 309 313 316 319 319 320 323 325 325 326 328 328 329 329 328 327
332 331 331 331 333 335 338 338 335 332 333 334 335 338 341 340 338 338 336 334 335 336 336 336 336 335 335 336 338 338 339 340 340 340 338 336 335 335 335 332 329 326 322 321 320 317 312 310 308 307 309 309 308 306 303 298 294 291 290 291 291 291 292 292 292 294 297 300 304 309 313 316 318 319 321 324 325 325 326 328 329 329 328 327 326
330 330 330 331 332 333 336 335 333 331 331 332 333 335 337 338 339 339 338 336 335 334 334 334 334 334 333 334 335 336 336 336 335 335 334 333 332 332 333 333 332 330 326 323 320 316 314 312 310 311 312 312 312 311 307 301 295 291 289 289 289 289 291 292 292 294 297 299 303 310 314 314 317 320 322 324 325 326 326 328 329 328 326 325 323
328 328 328 328 329 331 332 331 330 329 329 329 330 332 333 334 336 336 337 336 334 332 331 330 329 329 329 331 332 333 333 332 331 331 330 329 328 328 329 330 332 331 330 328 324 318 314 312 312 313 316 316 317 318 315 310 304 298 294 293 293 293 294 294 293 294 298 301 306 311 313 313 317 321 322 323 325 326 327 329 329 327 326 325 323
324 324 325 325 326 327 328 327 327 327 326 326 327 329 330 331 332 333 335 334 333 332 330 328 326 325 325 327 329 331 330 329 329 329 328 328 329 329 329 330 332 332 331 331 329 323 319 316 316 317 319 320 321 322 321 319 316 312 308 306 305 302 299 297 296 300 305 309 311 312 313 314 318 321 322 324 327 328 327 328 328 327 327 325 324
321 321 321 321 321 323 324 324 324 324 324 324 323 324 326 327 328 330 332 332 331 332 332 330 329 328 326 325 327 329 330 330 331 332 332 333 334 335 335 334 333 331 328 328 329 328 327 324 322 320 319 318 318 319 321 322 324 325 323 319 316 312 310 310 312 314 314 313 313 314 315 317 320 321 323 326 328 328 328 328 327 327 326 324 324
316 316 316 316 318 319 320 320 320 321 321 321 320 321 324 325 325 327 329 329 329 331 332 331 330 328 326 326 327 328 329 331 333 334 336 337 336 336 335 333 330 328 326 326 328 330 331 330 327 323 319 317 315 316 320 323 327 328 324 319 317 318 320 321 320 318 316 315 315 317 318 319 320 322 326 328 330 329 328 327 326 325 325 324 323
312 312 311 312 315 317 317 318 318 318 319 319 319 320 322 323 323 324 325 325 326 328 328 328 328 327 326 326 327 326 328 330 332 334 336 336 333 332 331 331 331 331 330 330 333 336 337 336 333 328 324 322 322 323 324 324 324 322 318 317 319 321 321 322 320 316 315 315 317 318 319 320 322 325 328 330 330 329 327 326 325 325 324 324 323